Location: Songkhla
(7.2000°N, 100.6000°E)
Time: 20:46:56
(UTC+07:00)

ISS - Pass Details

Date: 19 April 2026
Orbit: 414 x 424 km, 51.6° (Epoch: 19 May)

Event Time Altitude Azimuth Distance (km) Brightness Sun altitude
Rises 13:12:36 0° 331° (NNW) 2,367 0.2 75.7°
Reaches altitude 10° 13:14:44 10° 336° (NNW) 1,503 -0.7 75.2°
Maximum altitude 13:18:01 52° 54° (NE) 533 -2.5 74.4°
Drops below altitude 10° 13:21:19 10° 131° (SE) 1,503 -1.0 73.6°
Sets 13:23:27 0° 136° (SE) 2,366 -0.1 73.1°
